Time,TemperatureF,DewpointF,PressureIn,WindDirection,WindDirectionDegrees,WindSpeedMPH,WindSpeedGustMPH,Humidity,HourlyPrecipIn,Conditions,Clouds,dailyrainin,SoftwareType,DateUTC
2013-01-16 00:03:00,27.0,24.0,30.27,WNW,291,0.0,0.0,87,0.00,,,0.00,,2013-01-16 05:03:00,
2013-01-16 00:12:00,27.0,24.0,30.27,WNW,291,0.0,0.0,87,0.00,,,0.00,,2013-01-16 05:12:00,
2013-01-16 00:23:00,27.0,24.0,30.27,WNW,291,0.0,1.0,87,0.00,,,0.00,,2013-01-16 05:23:00,
2013-01-16 00:32:00,27.0,24.0,30.26,WNW,291,0.0,0.0,87,0.00,,,0.00,,2013-01-16 05:32:00,
2013-01-16 00:42:00,27.0,24.0,30.26,WNW,291,0.0,0.0,87,0.00,,,0.00,,2013-01-16 05:42:00,
2013-01-16 00:53:00,27.0,24.0,30.26,WNW,291,0.0,0.0,88,0.00,,,0.00,,2013-01-16 05:53:00,
2013-01-16 01:03:00,27.0,24.0,30.26,WNW,291,0.0,0.0,88,0.00,,,0.00,,2013-01-16 06:03:00,
2013-01-16 01:12:00,27.0,24.0,30.26,WNW,291,0.0,0.0,88,0.00,,,0.00,,2013-01-16 06:12:00,
2013-01-16 01:22:00,26.0,23.0,30.26,WNW,291,0.0,0.0,88,0.00,,,0.00,,2013-01-16 06:22:00,
2013-01-16 01:32:00,27.0,24.0,30.24,WNW,291,0.0,0.0,89,0.00,,,0.00,,2013-01-16 06:32:00,
2013-01-16 01:43:00,27.0,24.0,30.24,WNW,291,0.0,0.0,89,0.00,,,0.00,,2013-01-16 06:43:00,
2013-01-16 01:53:00,27.0,24.0,30.24,WNW,291,0.0,0.0,89,0.00,,,0.00,,2013-01-16 06:53:00,
2013-01-16 02:02:00,27.0,24.0,30.22,SE,131,0.0,0.0,89,0.00,,,0.00,,2013-01-16 07:02:00,
2013-01-16 02:12:00,27.0,24.0,30.22,SE,131,0.0,0.0,89,0.00,,,0.00,,2013-01-16 07:12:00,
2013-01-16 02:22:00,27.0,24.0,30.23,SE,132,0.0,0.0,88,0.00,,,0.00,,2013-01-16 07:22:00,
2013-01-16 02:33:00,27.0,24.0,30.23,SE,131,0.0,0.0,89,0.00,,,0.00,,2013-01-16 07:33:00,
2013-01-16 02:42:00,27.0,24.0,30.23,SE,131,0.0,0.0,89,0.00,,,0.00,,2013-01-16 07:42:00,
2013-01-16 02:52:00,27.0,24.0,30.22,ESE,114,0.0,1.0,88,0.00,,,0.00,,2013-01-16 07:52:00,
2013-01-16 03:02:00,27.0,24.0,30.21,ESE,120,0.0,2.0,87,0.00,,,0.00,,2013-01-16 08:02:00,
2013-01-16 03:12:00,27.0,24.0,30.21,ESE,120,0.0,2.0,87,0.00,,,0.00,,2013-01-16 08:12:00,
2013-01-16 03:22:00,27.0,24.0,30.20,SE,141,0.0,1.0,87,0.00,,,0.00,,2013-01-16 08:22:00,
2013-01-16 03:32:00,27.0,24.0,30.20,SE,141,0.0,0.0,87,0.00,,,0.00,,2013-01-16 08:32:00,
2013-01-16 03:42:00,27.0,24.0,30.20,SE,141,0.0,0.0,87,0.00,,,0.00,,2013-01-16 08:42:00,
2013-01-16 03:53:00,27.0,24.0,30.19,SE,136,0.0,0.0,87,0.00,,,0.00,,2013-01-16 08:53:00,
2013-01-16 04:02:00,27.0,24.0,30.18,East,79,0.0,2.0,87,0.00,,,0.00,,2013-01-16 09:02:00,
2013-01-16 04:12:00,27.0,24.0,30.18,East,79,0.0,2.0,87,0.00,,,0.00,,2013-01-16 09:12:00,
2013-01-16 04:22:00,27.0,23.0,30.17,ESE,120,0.0,1.0,86,0.00,,,0.00,,2013-01-16 09:22:00,
2013-01-16 04:32:00,27.0,23.0,30.17,ESE,123,1.0,2.0,85,0.00,,,0.00,,2013-01-16 09:32:00,
2013-01-16 04:42:00,27.0,23.0,30.17,ESE,123,1.0,2.0,85,0.00,,,0.00,,2013-01-16 09:42:00,
2013-01-16 04:53:00,27.0,23.0,30.16,NW,314,0.0,1.0,85,0.00,,,0.00,,2013-01-16 09:53:00,
2013-01-16 05:02:00,27.0,23.0,30.15,ESE,114,0.0,3.0,85,0.00,,,0.00,,2013-01-16 10:02:00,
2013-01-16 05:12:00,27.0,23.0,30.15,ESE,114,0.0,3.0,85,0.00,,,0.00,,2013-01-16 10:12:00,
2013-01-16 05:22:00,27.0,23.0,30.14,ESE,116,1.0,4.0,86,0.00,,,0.00,,2013-01-16 10:22:00,
2013-01-16 05:32:00,27.0,24.0,30.13,SE,125,0.0,3.0,89,0.00,,,0.00,,2013-01-16 10:32:00,
2013-01-16 05:42:00,27.0,24.0,30.13,SE,125,0.0,3.0,89,0.00,,,0.00,,2013-01-16 10:42:00,
2013-01-16 05:53:00,26.0,23.0,30.14,ESE,123,0.0,0.0,90,0.00,,,0.00,,2013-01-16 10:53:00,
2013-01-16 06:02:00,26.0,24.0,30.11,East,95,0.0,1.0,91,0.00,,,0.00,,2013-01-16 11:02:00,
2013-01-16 06:12:00,26.0,24.0,30.11,East,95,0.0,1.0,91,0.00,,,0.00,,2013-01-16 11:12:00,
2013-01-16 06:23:00,26.0,24.0,30.13,East,94,0.0,0.0,92,0.00,,,0.00,,2013-01-16 11:23:00,
2013-01-16 06:33:00,26.0,24.0,30.14,NNW,330,0.0,0.0,92,0.00,,,0.00,,2013-01-16 11:33:00,
2013-01-16 06:43:00,26.0,24.0,30.14,NNW,330,0.0,0.0,92,0.00,,,0.00,,2013-01-16 11:43:00,
2013-01-16 06:53:00,26.0,24.0,30.13,East,101,0.0,2.0,92,0.00,,,0.00,,2013-01-16 11:53:00,
2013-01-16 07:03:00,26.0,24.0,30.12,NW,319,0.0,0.0,93,0.00,,,0.00,,2013-01-16 12:03:00,
2013-01-16 07:13:00,26.0,24.0,30.12,NW,319,0.0,0.0,93,0.00,,,0.00,,2013-01-16 12:13:00,
2013-01-16 07:22:00,26.0,24.0,30.12,West,280,0.0,3.0,93,0.00,,,0.00,,2013-01-16 12:22:00,
2013-01-16 07:33:00,26.0,24.0,30.12,NW,307,0.0,1.0,93,0.00,,,0.00,,2013-01-16 12:33:00,
2013-01-16 07:43:00,26.0,24.0,30.12,NW,307,0.0,1.0,93,0.00,,,0.00,,2013-01-16 12:43:00,
2013-01-16 07:53:00,26.0,24.0,30.11,East,79,0.0,1.0,93,0.00,,,0.00,,2013-01-16 12:53:00,
2013-01-16 08:03:00,26.0,24.0,30.10,East,86,0.0,0.0,93,0.00,,,0.00,,2013-01-16 13:03:00,
2013-01-16 08:12:00,26.0,24.0,30.10,East,86,0.0,0.0,93,0.00,,,0.00,,2013-01-16 13:12:00,
2013-01-16 08:23:00,26.0,24.0,30.09,ESE,115,1.0,2.0,93,0.00,,,0.00,,2013-01-16 13:23:00,
2013-01-16 08:33:00,26.0,24.0,30.09,WSW,257,0.0,1.0,93,0.00,,,0.00,,2013-01-16 13:33:00,
2013-01-16 08:43:00,26.0,24.0,30.09,WSW,257,0.0,1.0,93,0.00,,,0.00,,2013-01-16 13:43:00,
2013-01-16 08:53:00,26.0,24.0,30.09,NE,50,0.0,1.0,93,0.00,,,0.00,,2013-01-16 13:53:00,
2013-01-16 09:03:00,26.0,24.0,30.10,WNW,285,0.0,2.0,93,0.00,,,0.00,,2013-01-16 14:03:00,
2013-01-16 09:12:00,26.0,24.0,30.10,WNW,285,0.0,2.0,93,0.00,,,0.00,,2013-01-16 14:12:00,
2013-01-16 09:23:00,27.0,25.0,30.06,WNW,288,0.0,0.0,93,0.00,,,0.00,,2013-01-16 14:23:00,
2013-01-16 09:33:00,27.0,25.0,30.07,West,278,0.0,1.0,93,0.00,,,0.00,,2013-01-16 14:33:00,
2013-01-16 09:43:00,27.0,25.0,30.07,West,278,0.0,1.0,93,0.00,,,0.00,,2013-01-16 14:43:00,
2013-01-16 09:53:00,27.0,25.0,30.07,West,278,0.0,0.0,93,0.00,,,0.00,,2013-01-16 14:53:00,
2013-01-16 10:03:00,27.0,25.0,30.06,West,278,0.0,0.0,93,0.00,,,0.00,,2013-01-16 15:03:00,
2013-01-16 10:12:00,27.0,25.0,30.06,West,278,0.0,0.0,93,0.00,,,0.00,,2013-01-16 15:12:00,
2013-01-16 10:23:00,28.0,26.0,30.05,West,278,0.0,0.0,92,0.00,,,0.00,,2013-01-16 15:23:00,
2013-01-16 10:33:00,28.0,26.0,30.04,West,278,0.0,0.0,92,0.00,,,0.00,,2013-01-16 15:33:00,
2013-01-16 10:43:00,28.0,26.0,30.04,West,278,0.0,0.0,92,0.00,,,0.00,,2013-01-16 15:43:00,
2013-01-16 10:53:00,28.0,26.0,30.04,West,278,0.0,0.0,92,0.00,,,0.00,,2013-01-16 15:53:00,
2013-01-16 11:04:00,28.0,26.0,30.03,West,278,0.0,0.0,92,0.00,,,0.00,,2013-01-16 16:04:00,
2013-01-16 11:12:00,28.0,26.0,30.03,West,278,0.0,0.0,92,0.00,,,0.00,,2013-01-16 16:12:00,
2013-01-16 11:23:00,28.0,26.0,30.03,West,278,0.0,0.0,91,0.00,,,0.00,,2013-01-16 16:23:00,
2013-01-16 11:33:00,28.0,26.0,30.01,West,279,0.0,0.0,92,0.00,,,0.00,,2013-01-16 16:33:00,
2013-01-16 11:43:00,28.0,26.0,30.01,West,279,0.0,0.0,92,0.00,,,0.00,,2013-01-16 16:43:00,
2013-01-16 11:53:00,29.0,27.0,30.00,West,278,0.0,0.0,92,0.00,,,0.00,,2013-01-16 16:53:00,
2013-01-16 12:03:00,29.0,27.0,29.98,SE,125,0.0,0.0,91,0.00,,,0.00,,2013-01-16 17:03:00,
2013-01-16 12:12:00,29.0,27.0,29.98,SE,125,0.0,0.0,91,0.00,,,0.00,,2013-01-16 17:12:00,
2013-01-16 12:23:00,29.0,27.0,29.98,SE,125,0.0,0.0,91,0.00,,,0.00,,2013-01-16 17:23:00,
2013-01-16 12:33:00,29.0,27.0,29.96,SE,132,0.0,1.0,91,0.00,,,0.00,,2013-01-16 17:33:00,
2013-01-16 12:44:00,29.0,27.0,29.96,SE,132,0.0,1.0,91,0.00,,,0.00,,2013-01-16 17:44:00,
2013-01-16 12:53:00,29.0,27.0,29.94,SE,129,0.0,2.0,91,0.00,,,0.00,,2013-01-16 17:53:00,
2013-01-16 13:03:00,28.0,26.0,29.92,SE,126,0.0,2.0,92,0.00,,,0.00,,2013-01-16 18:03:00,
2013-01-16 13:13:00,28.0,26.0,29.92,SE,126,0.0,2.0,92,0.00,,,0.00,,2013-01-16 18:13:00,
2013-01-16 13:23:00,29.0,27.0,29.92,SE,132,0.0,1.0,92,0.00,,,0.00,,2013-01-16 18:23:00,
2013-01-16 13:33:00,29.0,27.0,29.92,ESE,122,0.0,1.0,91,0.00,,,0.00,,2013-01-16 18:33:00,
2013-01-16 13:42:00,29.0,27.0,29.92,ESE,122,0.0,1.0,91,0.00,,,0.00,,2013-01-16 18:42:00,
2013-01-16 13:53:00,29.0,27.0,29.91,East,100,0.0,1.0,91,0.00,,,0.00,,2013-01-16 18:53:00,
2013-01-16 14:03:00,29.0,27.0,29.91,SSE,162,0.0,1.0,91,0.00,,,0.00,,2013-01-16 19:03:00,
2013-01-16 14:13:00,29.0,27.0,29.91,SSE,162,0.0,1.0,91,0.00,,,0.00,,2013-01-16 19:13:00,
2013-01-16 14:23:00,29.0,27.0,29.90,ESE,107,0.0,1.0,91,0.00,,,0.00,,2013-01-16 19:23:00,
2013-01-16 14:33:00,29.0,26.0,29.90,SE,136,0.0,1.0,90,0.00,,,0.00,,2013-01-16 19:33:00,
2013-01-16 14:43:00,29.0,26.0,29.90,SE,136,0.0,1.0,90,0.00,,,0.00,,2013-01-16 19:43:00,
2013-01-16 14:53:00,29.0,26.0,29.90,SE,140,0.0,2.0,90,0.00,,,0.00,,2013-01-16 19:53:00,
2013-01-16 15:03:00,29.0,26.0,29.89,SE,132,0.0,1.0,90,0.00,,,0.00,,2013-01-16 20:03:00,
2013-01-16 15:12:00,29.0,26.0,29.89,SE,132,0.0,1.0,90,0.00,,,0.00,,2013-01-16 20:12:00,
2013-01-16 15:23:00,30.0,27.0,29.89,ESE,120,0.0,2.0,90,0.00,,,0.00,,2013-01-16 20:23:00,
2013-01-16 15:33:00,30.0,27.0,29.88,ESE,120,0.0,1.0,90,0.00,,,0.00,,2013-01-16 20:33:00,
2013-01-16 15:43:00,30.0,27.0,29.88,ESE,120,0.0,1.0,90,0.00,,,0.00,,2013-01-16 20:43:00,
2013-01-16 15:53:00,30.0,28.0,29.89,SE,126,0.0,1.0,91,0.00,,,0.00,,2013-01-16 20:53:00,
2013-01-16 16:03:00,29.0,27.0,29.88,SE,131,0.0,2.0,91,0.00,,,0.00,,2013-01-16 21:03:00,
2013-01-16 16:12:00,29.0,27.0,29.88,SE,131,0.0,2.0,91,0.00,,,0.00,,2013-01-16 21:12:00,
2013-01-16 16:23:00,29.0,27.0,29.88,SE,141,0.0,2.0,91,0.00,,,0.00,,2013-01-16 21:23:00,
2013-01-16 16:33:00,29.0,27.0,29.88,South,181,0.0,1.0,91,0.00,,,0.00,,2013-01-16 21:33:00,
2013-01-16 16:43:00,29.0,27.0,29.88,South,181,0.0,1.0,91,0.00,,,0.00,,2013-01-16 21:43:00,
2013-01-16 16:53:00,29.0,27.0,29.88,South,181,0.0,1.0,91,0.00,,,0.00,,2013-01-16 21:53:00,
2013-01-16 17:03:00,29.0,27.0,29.87,West,263,0.0,0.0,92,0.00,,,0.00,,2013-01-16 22:03:00,
2013-01-16 17:12:00,29.0,27.0,29.87,West,263,0.0,0.0,92,0.00,,,0.00,,2013-01-16 22:12:00,
2013-01-16 17:23:00,29.0,27.0,29.87,SE,125,0.0,1.0,92,0.00,,,0.00,,2013-01-16 22:23:00,
2013-01-16 17:33:00,29.0,27.0,29.88,SE,125,0.0,0.0,92,0.00,,,0.00,,2013-01-16 22:33:00,
2013-01-16 17:43:00,29.0,27.0,29.88,SE,125,0.0,0.0,92,0.00,,,0.00,,2013-01-16 22:43:00,
2013-01-16 17:53:00,29.0,27.0,29.88,South,188,0.0,1.0,93,0.00,,,0.00,,2013-01-16 22:53:00,
2013-01-16 18:03:00,28.0,26.0,29.88,South,188,0.0,0.0,93,0.00,,,0.00,,2013-01-16 23:03:00,
2013-01-16 18:12:00,28.0,26.0,29.88,South,188,0.0,0.0,93,0.00,,,0.00,,2013-01-16 23:12:00,
2013-01-16 18:23:00,28.0,26.0,29.88,South,188,0.0,0.0,93,0.00,,,0.00,,2013-01-16 23:23:00,
2013-01-16 18:32:00,28.0,26.0,29.88,South,188,0.0,0.0,93,0.00,,,0.00,,2013-01-16 23:32:00,
2013-01-16 18:42:00,28.0,26.0,29.88,South,188,0.0,0.0,93,0.00,,,0.00,,2013-01-16 23:42:00,
2013-01-16 18:53:00,28.0,26.0,29.88,South,176,0.0,0.0,93,0.00,,,0.00,,2013-01-16 23:53:00,
2013-01-16 19:02:00,28.0,26.0,29.88,South,176,0.0,0.0,93,0.00,,,0.00,,2013-01-17 00:02:00,
2013-01-16 19:12:00,28.0,26.0,29.88,South,176,0.0,0.0,93,0.00,,,0.00,,2013-01-17 00:12:00,
2013-01-16 19:22:00,28.0,26.0,29.88,South,181,0.0,0.0,93,0.00,,,0.00,,2013-01-17 00:22:00,
2013-01-16 19:32:00,28.0,26.0,29.89,South,181,0.0,0.0,93,0.00,,,0.00,,2013-01-17 00:32:00,
2013-01-16 19:42:00,28.0,26.0,29.89,South,181,0.0,0.0,93,0.00,,,0.00,,2013-01-17 00:42:00,
2013-01-16 19:53:00,28.0,26.0,29.90,South,181,0.0,0.0,93,0.00,,,0.00,,2013-01-17 00:53:00,
2013-01-16 20:02:00,28.0,26.0,29.89,NW,319,0.0,2.0,93,0.00,,,0.00,,2013-01-17 01:02:00,
2013-01-16 20:12:00,28.0,26.0,29.89,NW,319,0.0,2.0,93,0.00,,,0.00,,2013-01-17 01:12:00,
2013-01-16 20:22:00,28.0,26.0,29.89,NW,318,0.0,0.0,93,0.00,,,0.00,,2013-01-17 01:22:00,
2013-01-16 20:33:00,27.0,25.0,29.89,NW,319,0.0,0.0,93,0.00,,,0.00,,2013-01-17 01:33:00,
2013-01-16 20:42:00,27.0,25.0,29.89,NW,319,0.0,0.0,93,0.00,,,0.00,,2013-01-17 01:42:00,
2013-01-16 20:53:00,25.0,23.0,29.89,NW,318,0.0,1.0,93,0.00,,,0.00,,2013-01-17 01:53:00,
2013-01-16 21:02:00,24.0,22.0,29.89,NW,319,0.0,1.0,93,0.00,,,0.00,,2013-01-17 02:02:00,
2013-01-16 21:12:00,24.0,22.0,29.89,NW,319,0.0,1.0,93,0.00,,,0.00,,2013-01-17 02:12:00,
2013-01-16 21:22:00,23.0,21.0,29.90,WNW,297,0.0,0.0,93,0.00,,,0.00,,2013-01-17 02:22:00,
2013-01-16 21:32:00,23.0,21.0,29.90,WNW,297,0.0,0.0,93,0.00,,,0.00,,2013-01-17 02:32:00,
2013-01-16 21:42:00,23.0,21.0,29.90,WNW,297,0.0,0.0,93,0.00,,,0.00,,2013-01-17 02:42:00,
2013-01-16 21:52:00,23.0,21.0,29.90,WNW,297,0.0,0.0,93,0.00,,,0.00,,2013-01-17 02:52:00,
2013-01-16 22:03:00,21.0,20.0,29.89,WNW,297,0.0,0.0,94,0.00,,,0.00,,2013-01-17 03:03:00,
2013-01-16 22:12:00,21.0,20.0,29.89,WNW,297,0.0,0.0,94,0.00,,,0.00,,2013-01-17 03:12:00,
2013-01-16 22:22:00,21.0,20.0,29.89,WNW,297,0.0,0.0,94,0.00,,,0.00,,2013-01-17 03:22:00,
2013-01-16 22:32:00,21.0,20.0,29.88,NNW,343,0.0,1.0,94,0.00,,,0.00,,2013-01-17 03:32:00,
2013-01-16 22:43:00,21.0,20.0,29.88,NNW,343,0.0,1.0,94,0.00,,,0.00,,2013-01-17 03:43:00,
2013-01-16 22:53:00,21.0,20.0,29.88,SW,232,0.0,1.0,94,0.00,,,0.00,,2013-01-17 03:53:00,
2013-01-16 23:02:00,20.0,19.0,29.88,SSW,211,0.0,0.0,94,0.00,,,0.00,,2013-01-17 04:02:00,
2013-01-16 23:12:00,19.0,18.0,29.87,SW,215,0.0,0.0,94,0.00,,,0.00,,2013-01-17 04:12:00,
2013-01-16 23:22:00,19.0,18.0,29.87,SW,215,0.0,0.0,94,0.00,,,0.00,,2013-01-17 04:22:00,
2013-01-16 23:33:00,19.0,18.0,29.88,SW,215,0.0,0.0,94,0.00,,,0.00,,2013-01-17 04:33:00,
2013-01-16 23:42:00,19.0,18.0,29.88,SW,215,0.0,0.0,94,0.00,,,0.00,,2013-01-17 04:42:00,
2013-01-16 23:52:00,18.0,17.0,29.88,SW,215,0.0,0.0,94,0.00,,,0.00,,2013-01-17 04:52:00,